Regional Weather Roundup
Issued by NWS

Home | Current Version | Previous Version | Graphics & Text | Print | Product List | Glossary On
Versions: 1 2 3 4 5 6 7 8 9 10 11 12 13 14 15 16 17 18 19 20 21 22 23 24 25 26 27 28 29 30 31 32 33 34 35 36 37 38 39 40 41 42 43 44 45 46 47 48 49 50
000
ASUS43 KOAX 271710
RWRNE

WEATHER ROUNDUP FOR NEBRASKA
NATIONAL WEATHER SERVICE OMAHA NE
1200 PM CDT THU JUL 27 2017

NOTES: SATELLITE DATA IS BEING USED TO AUGMENT CLOUD COVER ABOVE
       12000 FEET.
       "FAIR" INDICATES FEW OR NO CLOUDS BELOW 12,000 FEET WITH NO
       SIGNIFICANT WEATHER AND/OR OBSTRUCTIONS TO VISIBILITY.


NEZ001>004-019>022-054>056-271800-
NEBRASKA PANHANDLE

CITY           SKY/WX    TMP DP  RH WIND       PRES   REMARKS
SCOTTSBLUFF    CLOUDY    75  64  68 SE15      30.19S
ALLIANCE       CLOUDY    73  59  61 SE15      30.21S
CHADRON        CLOUDY    77  60  55 SE18      30.15F
GORDON         LGT RAIN  66  56  70 S14G21    30.21S
KIMBALL        CLOUDY    76  63  62 S13G18    30.25F
SIDNEY         CLOUDY    76  63  64 S13       30.24S
$$

NEZ057>060-069>072-079>082-271800-
SOUTHWEST NEBRASKA

CITY           SKY/WX    TMP DP  RH WIND       PRES   REMARKS
NORTH PLATTE   PTSUNNY   79  57  46 SE10      30.18F
IMPERIAL       CLOUDY    76  63  64 SE10      30.19F
LEXINGTON      CLOUDY    76  60  57 E7        30.17S
MCCOOK         PTSUNNY   80  62  54 E12       30.16S
OGALLALA       CLOUDY    71  65  80 SE6       30.21S
$$

NEZ005>010-023>029-035>040-094-271800-
NORTH CENTRAL NEBRASKA

CITY           SKY/WX    TMP DP  RH WIND       PRES   REMARKS
VALENTINE      CLOUDY    78  54  43 SE10      30.17F
AINSWORTH      CLOUDY    75  59  57 E6        30.18S
BROKEN BOW     MOSUNNY   78  60  53 VRB7      30.17F
O`NEILL        CLOUDY    76  62  61 E7        30.16F
ORD            MOSUNNY   78  56  46 NE8       30.15R
THEDFORD       PTSUNNY   79  55  43 E8        30.20F
$$

NEZ041-046>049-061>064-073>077-083>087-271800-
SOUTH CENTRAL NEBRASKA

CITY           SKY/WX    TMP DP  RH WIND       PRES   REMARKS
GRAND ISLAND   SUNNY     76  64  66 N9        30.13S
AURORA         CLOUDY    76  65  69 NE8       30.12F
HASTINGS       MOSUNNY   77  64  64 NE10      30.14S
HEBRON         MOSUNNY   81  67  62 NE10      30.08S
HOLDREGE       CLOUDY    74  64  73 E9        30.15S
KEARNEY        CLOUDY    76  63  64 VRB6      30.15S
YORK           MOSUNNY   75  64  69 NE10      30.11S
$$

NEZ011>018-030>034-042>045-271800-
NORTHEAST NEBRASKA

CITY           SKY/WX    TMP DP  RH WIND       PRES   REMARKS
NORFOLK        MOSUNNY   77  59  53 NE6       30.12F
ALBION         MOSUNNY   77  63  62 NE8       30.15R
BLAIR          MOSUNNY   79  65  60 NE10      30.08S
COLUMBUS       SUNNY     78  63  59 NE9       30.11F
FREMONT        PTSUNNY   79  62  57 NE8       30.09F
TEKAMAH        MOSUNNY   80  65  59 NE8       30.08S
WAYNE          MOSUNNY   79  63  58 NE9       30.12S
$$

NEZ050>053-065>068-078-088>093-271800-
SOUTHEAST NEBRASKA

CITY           SKY/WX    TMP DP  RH WIND       PRES   REMARKS
LINCOLN        MOSUNNY   80  67  64 N9        30.08S
OMAHA EPPLEY   MOSUNNY   82  63  52 N13       30.06F
BEATRICE       PTSUNNY   79  69  73 NE9       30.06F
FALLS CITY     PTSUNNY   81  71  71 N8        30.01F
NEBRASKA CITY  MOSUNNY   79  72  78 NE8       30.05S
PLATTSMOUTH    SUNNY     79  65  62 N6        30.06S
$$

NEZ044-045-051>053-067-271800-
OMAHA AREA

CITY           SKY/WX    TMP DP  RH WIND       PRES   REMARKS
OMAHA EPPLEY   MOSUNNY   82  63  52 N13       30.06F
BLAIR          MOSUNNY   79  65  60 NE10      30.08S
FREMONT        PTSUNNY   79  62  57 NE8       30.09F
MILLARD        MOSUNNY   81  67  61 N7        30.07F
OFFUTT AFB     SUNNY     82  64  55 NE9       30.05F
PLATTSMOUTH    SUNNY     79  65  62 N6        30.06S
WAHOO          FAIR      77  65  65 NE9       30.08F
$$




USA.gov is the U.S. government's official web portal to all federal, state and local government web resources and services.